User: anonymous   Login
Location: Unspecified
(0.0000°N, 0.0000°E)
Time: 21:39:06
(UTC+00:00)
Language:

WGS 10 (USA 291) - Orbit

View from above orbital plane
View from above orbital plane
View from above satellite
View from above satellite

Ground track
Ground track

The orbit data is extracted from the following two-line orbital elements,

1 44071U 19014A   21332.43375484  .00000063  00000-0  00000+0 0  9998
2 44071   0.0106 358.2891 0000561 298.1010 347.6641  1.00270432  9946
Epoch (UTC): 28 November 2021 10:24:36
Eccentricity: 0.0000561
inclination: 0.0106°
perigee height: 35784 km
apogee height: 35789 km
right ascension of ascending node: 358.2891°
argument of perigee: 298.1010°
revolutions per day: 1.00270432
mean anomaly at epoch: 347.6641°
orbit number at epoch: 994

The dashed part of the orbit path shows where the satellite is in the earth's shadow,  

DLR